Location: Gajan
(43.0218°N, 1.1244°E)
Time: 03:02:41
(UTC+00:00)

X-37B - Pass Details

Date: 30 September 2021
Orbit: 445 x 447 km, 45.0° (Epoch: 24 October)

Event Time Altitude Azimuth Distance (km) Brightness Sun altitude
Exits shadow 03:50:00 56° 44° (NE) 532 1.4 -22.8°
Drops below altitude 10° 03:53:06 10° 88° (E) 1,565 4.7 -22.2°
Enters shadow 04:48:30 -71° 286° (WNW) 12,542 8.1 -12.4°
Maximum altitude 05:27:33 57° 204° (SSW) 528 1.1 -5.3°
